| time (UTC) | temp C | wind direction | speed KPH | gust KPH | rain 1hr cm | rain 24hr cm | rain mn cm | humidity % | barometer mb |
| 20260509034110 | 14 | 314 | 4.8 | 6.4 | 0.00 | 6.20 | 3.15 | 86 | 1006.7 |
| 20260509033047 | 14 | 296 | 3.2 | 8.0 | 0.00 | 6.20 | 3.15 | 83 | 1006.7 |
| 20260509032043 | 15 | 244 | 4.8 | 9.7 | 0.00 | 6.20 | 3.15 | 80 | 1006.8 |
| 20260509031119 | 16 | 185 | 4.8 | 14.5 | 0.00 | 6.20 | 3.15 | 77 | 1006.7 |
| 20260509030035 | 16 | 57 | 6.4 | 12.9 | 0.00 | 6.20 | 3.15 | 74 | 1006.7 |
| 20260509025031 | 17 | 240 | 8.0 | 12.9 | 0.00 | 6.20 | 3.15 | 69 | 1006.9 |
| 20260509024028 | 18 | 342 | 6.4 | 11.3 | 0.00 | 6.20 | 3.15 | 69 | 1006.9 |
| 20260509023025 | 18 | 3 | 9.7 | 17.7 | 0.00 | 6.20 | 3.15 | 70 | 1006.9 |
| 20260509022041 | 17 | 227 | 8.0 | 17.7 | 0.00 | 6.20 | 3.15 | 73 | 1007.0 |
| 20260509021017 | 16 | 215 | 6.4 | 9.7 | 0.00 | 6.20 | 3.15 | 72 | 1007.0 |
| 20260509020114 | 17 | 188 | 6.4 | 12.9 | 0.00 | 6.20 | 3.15 | 72 | 1007.1 |
| 20260509015111 | 17 | 1 | 8.0 | 14.5 | 0.00 | 6.20 | 3.15 | 70 | 1007.0 |
| 20260509014107 | 17 | 310 | 4.8 | 11.3 | 0.00 | 6.20 | 3.15 | 71 | 1007.0 |
| 20260509013103 | 17 | 203 | 9.7 | 14.5 | 0.00 | 6.20 | 3.15 | 72 | 1007.0 |
| 20260509012101 | 17 | 26 | 11.3 | 19.3 | 0.00 | 6.20 | 3.15 | 67 | 1006.9 |
| 20260509011056 | 18 | 231 | 9.7 | 20.9 | 0.00 | 6.20 | 3.15 | 66 | 1007.0 |
| 20260509010053 | 18 | 39 | 8.0 | 17.7 | 0.00 | 6.20 | 3.15 | 71 | 1007.1 |
| 20260509005109 | 16 | 307 | 9.7 | 16.1 | 0.00 | 6.20 | 3.15 | 75 | 1007.3 |
| 20260509004046 | 16 | 310 | 9.7 | 25.7 | 0.00 | 6.20 | 3.15 | 72 | 1007.4 |
| 20260509003042 | 17 | 5 | 12.9 | 20.9 | 0.00 | 6.20 | 3.15 | 70 | 1007.5 |
| 20260509002038 | 17 | 283 | 9.7 | 17.7 | 0.00 | 6.20 | 3.15 | 72 | 1007.7 |
| 20260509001035 | 17 | 270 | 14.5 | 20.9 | 0.00 | 6.20 | 3.15 | 71 | 1007.9 |
| 20260509000031 | 17 | 336 | 12.9 | 29.0 | 0.00 | 6.20 | 3.15 | 74 | 1008.1 |
| 20260508235028 | 16 | 290 | 12.9 | 25.7 | 0.00 | 6.20 | 3.15 | 75 | 1008.2 |
| 20260508234026 | 17 | 326 | 14.5 | 27.4 | 0.00 | 6.20 | 3.15 | 74 | 1008.3 |
| 20260508233021 | 16 | 260 | 9.7 | 17.7 | 0.00 | 6.20 | 3.15 | 79 | 1008.4 |
| 20260508232017 | 16 | 296 | 9.7 | 17.7 | 0.00 | 6.20 | 3.15 | 80 | 1008.7 |
| 20260508231114 | 16 | 238 | 8.0 | 17.7 | 0.00 | 6.20 | 3.15 | 78 | 1008.8 |
| 20260508230112 | 16 | 314 | 9.7 | 16.1 | 0.00 | 6.20 | 3.15 | 76 | 1008.8 |
| 20260508225109 | 16 | 228 | 9.7 | 24.1 | 0.00 | 6.20 | 3.15 | 76 | 1008.9 |
| 20260508224124 | 17 | 17 | 12.9 | 22.5 | 0.00 | 6.20 | 3.15 | 75 | 1008.9 |
| 20260508223100 | 17 | 20 | 12.9 | 22.5 | 0.00 | 6.20 | 3.15 | 76 | 1008.9 |
| 20260508222057 | 16 | 331 | 12.9 | 20.9 | 0.00 | 6.20 | 3.15 | 76 | 1008.9 |
| 20260508221053 | 17 | 231 | 12.9 | 20.9 | 0.00 | 6.20 | 3.15 | 75 | 1009.0 |
| 20260508220050 | 17 | 24 | 8.0 | 12.9 | 0.00 | 6.20 | 3.15 | 77 | 1008.9 |
| 20260508215047 | 16 | 264 | 9.7 | 17.7 | 0.00 | 6.20 | 3.15 | 76 | 1008.9 |
| 20260508214043 | 17 | 270 | 11.3 | 24.1 | 0.00 | 6.20 | 3.15 | 76 | 1009.0 |
| 20260508213101 | 17 | 34 | 9.7 | 14.5 | 0.00 | 6.20 | 3.15 | 79 | 1009.1 |
| 20260508212057 | 17 | 20 | 8.0 | 16.1 | 0.00 | 6.20 | 3.15 | 81 | 1008.9 |
| 20260508211035 | 16 | 6 | 9.7 | 17.7 | 0.00 | 6.20 | 3.15 | 83 | 1009.0 |
| 20260508210031 | 16 | 338 | 11.3 | 17.7 | 0.00 | 6.20 | 3.15 | 82 | 1008.9 |
| 20260508205026 | 16 | 19 | 9.7 | 17.7 | 0.00 | 6.20 | 3.15 | 85 | 1008.8 |
| 20260508204022 | 16 | 346 | 9.7 | 14.5 | 0.00 | 6.20 | 3.15 | 86 | 1008.8 |
| 20260508203018 | 16 | 24 | 9.7 | 17.7 | 0.00 | 6.20 | 3.15 | 89 | 1008.7 |
| 20260508202117 | 15 | 24 | 8.0 | 12.9 | 0.00 | 6.20 | 3.15 | 90 | 1008.6 |
| 20260508201112 | 15 | 261 | 8.0 | 14.5 | 0.00 | 6.20 | 3.15 | 90 | 1008.6 |
| 20260508200109 | 15 | 266 | 11.3 | 17.7 | 0.00 | 6.20 | 3.15 | 91 | 1008.5 |
| 20260508195105 | 15 | 245 | 8.0 | 17.7 | 0.00 | 6.20 | 3.15 | 91 | 1008.4 |
| 20260508194101 | 15 | 297 | 8.0 | 19.3 | 0.00 | 6.20 | 3.15 | 92 | 1008.4 |
| 20260508193117 | 14 | 238 | 8.0 | 17.7 | 0.00 | 6.20 | 3.15 | 93 | 1008.5 |
| 20260508192054 | 14 | 249 | 8.0 | 11.3 | 0.00 | 6.20 | 3.15 | 94 | 1008.4 |
| 20260508191051 | 14 | 266 | 8.0 | 16.1 | 0.28 | 6.20 | 3.15 | 94 | 1008.4 |
| 20260508190107 | 15 | 249 | 6.4 | 16.1 | 0.33 | 6.20 | 3.15 | 94 | 1008.3 |
| 20260508185043 | 14 | 254 | 6.4 | 12.9 | 0.33 | 6.20 | 3.15 | 94 | 1008.1 |
| 20260508184041 | 14 | 238 | 6.4 | 9.7 | 0.33 | 6.20 | 3.15 | 94 | 1008.1 |
| 20260508183038 | 14 | 238 | 8.0 | 14.5 | 0.33 | 6.20 | 3.15 | 95 | 1008.1 |
| 20260508182032 | 14 | 230 | 9.7 | 22.5 | 0.33 | 6.20 | 3.15 | 95 | 1008.0 |
| 20260508181029 | 14 | 265 | 9.7 | 17.7 | 0.05 | 5.94 | 2.87 | 95 | 1007.9 |
| 20260508180025 | 14 | 41 | 8.0 | 12.9 | 0.00 | 5.87 | 2.82 | 95 | 1007.9 |
| 20260508175022 | 14 | 235 | 8.0 | 17.7 | 0.10 | 5.87 | 2.82 | 95 | 1007.8 |
| 20260508174018 | 14 | 278 | 9.7 | 16.1 | 0.10 | 5.87 | 2.82 | 96 | 1008.0 |
| 20260508173114 | 14 | 241 | 11.3 | 19.3 | 0.10 | 5.87 | 2.82 | 96 | 1008.1 |
| 20260508172130 | 14 | 286 | 9.7 | 16.1 | 0.10 | 5.87 | 2.82 | 96 | 1008.1 |
| 20260508171107 | 14 | 257 | 6.4 | 12.9 | 0.10 | 5.87 | 2.82 | 96 | 1008.1 |
| 20260508165101 | 14 | 288 | 9.7 | 17.7 | 0.00 | 5.79 | 2.72 | 97 | 1008.2 |
| 20260508164055 | 14 | 248 | 11.3 | 20.9 | 0.36 | 5.79 | 2.72 | 97 | 1008.3 |
| 20260508163052 | 14 | 307 | 9.7 | 19.3 | 0.51 | 5.79 | 2.72 | 96 | 1008.2 |
| 20260508162048 | 14 | 195 | 8.0 | 16.1 | 0.76 | 5.79 | 2.72 | 95 | 1008.2 |
| 20260508161045 | 14 | 246 | 6.4 | 12.9 | 0.76 | 5.79 | 2.72 | 94 | 1008.2 |
| 20260508160103 | 14 | 326 | 8.0 | 12.9 | 0.76 | 5.79 | 2.72 | 95 | 1008.3 |
| 20260508155038 | 14 | 353 | 8.0 | 22.5 | 0.79 | 5.79 | 2.72 | 95 | 1008.5 |
| 20260508154054 | 14 | 234 | 9.7 | 20.9 | 0.71 | 5.44 | 2.36 | 96 | 1008.4 |
| 20260508153030 | 14 | 238 | 9.7 | 17.7 | 0.56 | 5.28 | 2.21 | 96 | 1008.5 |
| 20260508152027 | 14 | 265 | 9.7 | 14.5 | 0.33 | 5.03 | 1.98 | 96 | 1008.6 |
| 20260508150021 | 14 | 246 | 11.3 | 16.1 | 0.33 | 5.03 | 1.98 | 97 | 1008.7 |
| 20260508145016 | 14 | 180 | 8.0 | 14.5 | 0.76 | 5.00 | 1.96 | 97 | 1009.1 |
| 20260508144113 | 14 | 292 | 6.4 | 12.9 | 0.46 | 4.70 | 1.65 | 97 | 1009.3 |
| 20260508143110 | 14 | 333 | 6.4 | 9.7 | 0.46 | 4.70 | 1.65 | 97 | 1009.4 |
| 20260508142106 | 13 | 241 | 9.7 | 19.3 | 0.48 | 4.70 | 1.65 | 96 | 1009.4 |
| 20260508141103 | 13 | 292 | 6.4 | 16.1 | 0.79 | 4.70 | 1.65 | 96 | 1009.3 |
| 20260508140120 | 13 | 322 | 9.7 | 17.7 | 1.02 | 4.70 | 1.65 | 95 | 1009.3 |
| 20260508135056 | 13 | 338 | 9.7 | 14.5 | 0.56 | 4.27 | 1.19 | 96 | 1009.2 |
| 20260508134054 | 13 | 236 | 11.3 | 17.7 | 0.56 | 4.27 | 1.19 | 97 | 1009.3 |
| 20260508133049 | 13 | 338 | 11.3 | 17.7 | 0.56 | 4.27 | 1.19 | 98 | 1009.4 |
| 20260508132105 | 13 | 262 | 14.5 | 22.5 | 0.53 | 4.24 | 1.17 | 98 | 1009.3 |
| 20260508131043 | 13 | 309 | 12.9 | 24.1 | 0.23 | 3.94 | 0.86 | 97 | 1009.3 |
| 20260508130039 | 13 | 317 | 8.0 | 12.9 | 0.00 | 3.68 | 0.64 | 97 | 1009.4 |
| 20260508125034 | 13 | 355 | 12.9 | 25.7 | 0.66 | 3.68 | 0.64 | 96 | 1009.6 |
| 20260508124031 | 13 | 248 | 8.0 | 22.5 | 1.32 | 3.68 | 0.64 | 95 | 1010.2 |
| 20260508123028 | 13 | 282 | 9.7 | 16.1 | 1.50 | 3.68 | 0.64 | 95 | 1010.1 |
| 20260508122024 | 13 | 348 | 8.0 | 14.5 | 1.50 | 3.68 | 0.64 | 95 | 1009.7 |
| 20260508121021 | 13 | 296 | 9.7 | 16.1 | 1.50 | 3.68 | 0.64 | 94 | 1010.0 |
| 20260508120017 | 13 | 25 | 11.3 | 22.5 | 1.50 | 3.68 | 0.64 | 95 | 1010.2 |
| 20260508115113 | 16 | 345 | 14.5 | 25.7 | 0.84 | 3.02 | 3.02 | 98 | 1010.1 |
| 20260508114110 | 16 | 232 | 14.5 | 24.1 | 0.43 | 2.36 | 2.36 | 99 | 1009.3 |
| 20260508113107 | 16 | 267 | 12.9 | 24.1 | 0.23 | 2.18 | 2.18 | 98 | 1009.4 |
| 20260508112104 | 16 | 274 | 11.3 | 24.1 | 0.23 | 2.18 | 2.18 | 98 | 1009.6 |
| 20260508111100 | 16 | 229 | 17.7 | 24.1 | 0.38 | 2.18 | 2.18 | 97 | 1009.7 |
| 20260508110056 | 16 | 246 | 9.7 | 17.7 | 0.38 | 2.18 | 2.18 | 96 | 1010.0 |
| 20260508105135 | 16 | 241 | 16.1 | 30.6 | 0.38 | 2.18 | 2.18 | 94 | 1010.1 |
| 20260508104111 | 16 | 318 | 11.3 | 19.3 | 0.15 | 1.96 | 1.96 | 94 | 1010.1 |
| 20260508103048 | 16 | 240 | 12.9 | 17.7 | 1.47 | 1.96 | 1.96 | 93 | 1010.1 |
| 20260508102043 | 16 | 252 | 20.9 | 33.8 | 1.47 | 1.96 | 1.96 | 92 | 1010.2 |
| 20260508101039 | 16 | 284 | 14.5 | 25.7 | 1.32 | 1.80 | 1.80 | 91 | 1010.5 |
| 20260508100036 | 16 | 257 | 17.7 | 32.2 | 1.32 | 1.80 | 1.80 | 89 | 1010.6 |
| 20260508095032 | 16 | 28 | 17.7 | 27.4 | 1.47 | 1.80 | 1.80 | 86 | 1010.6 |
| 20260508094029 | 16 | 280 | 16.1 | 27.4 | 1.47 | 1.80 | 1.80 | 89 | 1010.7 |
| 20260508093025 | 16 | 338 | 19.3 | 35.4 | 0.48 | 0.48 | 0.48 | 92 | 1011.0 |
| 20260508092022 | 16 | 250 | 20.9 | 38.6 | 0.48 | 0.48 | 0.48 | 91 | 1010.9 |
| 20260508091018 | 16 | 254 | 19.3 | 46.7 | 0.48 | 0.48 | 0.48 | 89 | 1010.9 |
| 20260508090115 | 16 | 342 | 22.5 | 40.2 | 0.48 | 0.48 | 0.48 | 88 | 1011.2 |
| 20260508085112 | 16 | 249 | 20.9 | 41.8 | 0.33 | 0.33 | 0.33 | 89 | 1010.9 |
| 20260508084127 | 16 | 279 | 24.1 | 48.3 | 0.33 | 0.33 | 0.33 | 89 | 1011.3 |
| 20260508083104 | 16 | 321 | 22.5 | 35.4 | 0.00 | 0.00 | 0.00 | 88 | 1011.2 |
| 20260508082100 | 16 | 321 | 20.9 | 33.8 | 0.00 | 0.00 | 0.00 | 86 | 1010.8 |
| 20260508081057 | 16 | 339 | 27.4 | 48.3 | 0.00 | 0.00 | 0.00 | 84 | 1011.4 |
| 20260508080055 | 16 | 246 | 24.1 | 48.3 | 0.00 | 0.00 | 0.00 | 86 | 1011.4 |
| 20260508075110 | 16 | 48 | 24.1 | 45.1 | 0.00 | 0.00 | 0.00 | 89 | 1011.4 |
| 20260508074047 | 16 | 260 | 24.1 | 38.6 | 0.00 | 0.00 | 0.00 | 91 | 1011.6 |
| 20260508073043 | 16 | 302 | 22.5 | 35.4 | 0.00 | 0.00 | 0.00 | 92 | 1011.5 |
| 20260508072039 | 16 | 259 | 17.7 | 37.0 | 0.00 | 0.00 | 0.00 | 94 | 1011.5 |
| 20260508071036 | 16 | 245 | 22.5 | 45.1 | 0.00 | 0.00 | 0.00 | 95 | 1011.3 |
| 20260508070035 | 16 | 235 | 12.9 | 20.9 | 0.00 | 0.00 | 0.00 | 94 | 1011.6 |
| 20260508065031 | 16 | 247 | 11.3 | 24.1 | 0.00 | 0.00 | 0.00 | 93 | 1011.8 |
| 20260508064025 | 16 | 232 | 16.1 | 25.7 | 0.00 | 0.00 | 0.00 | 92 | 1011.9 |
| 20260508063022 | 16 | 80 | 17.7 | 25.7 | 0.00 | 0.00 | 0.00 | 90 | 1011.9 |
| 20260508062018 | 16 | 294 | 16.1 | 27.4 | 0.00 | 0.00 | 0.00 | 89 | 1012.2 |
| 20260508061115 | 16 | 36 | 24.1 | 43.5 | 0.00 | 0.00 | 0.00 | 87 | 1012.3 |
| 20260508060112 | 16 | 264 | 22.5 | 38.6 | 0.00 | 0.00 | 0.00 | 87 | 1012.6 |
| 20260508055108 | 16 | 304 | 22.5 | 37.0 | 0.00 | 0.00 | 0.00 | 90 | 1013.0 |
| 20260508054104 | 16 | 241 | 20.9 | 33.8 | 0.00 | 0.00 | 0.00 | 89 | 1013.2 |
| 20260508053101 | 16 | 335 | 24.1 | 37.0 | 0.00 | 0.00 | 0.00 | 89 | 1013.6 |
| 20260508052058 | 16 | 31 | 19.3 | 35.4 | 0.00 | 0.00 | 0.00 | 90 | 1013.6 |
| 20260508051053 | 16 | 248 | 22.5 | 37.0 | 0.00 | 0.00 | 0.00 | 91 | 1013.8 |
| 20260508050049 | 16 | 246 | 24.1 | 38.6 | 0.00 | 0.00 | 0.00 | 91 | 1014.0 |
| 20260508045046 | 16 | 249 | 17.7 | 27.4 | 0.00 | 0.00 | 0.00 | 91 | 1014.3 |
| 20260508044043 | 16 | 258 | 17.7 | 30.6 | 0.00 | 0.00 | 0.00 | 90 | 1014.5 |
| 20260508043100 | 16 | 279 | 24.1 | 48.3 | 0.00 | 0.00 | 0.00 | 91 | 1014.4 |
| 20260508042038 | 16 | 277 | 24.1 | 48.3 | 0.00 | 0.00 | 0.00 | 92 | 1014.4 |
| 20260508041053 | 16 | 252 | 17.7 | 27.4 | 0.00 | 0.00 | 0.00 | 92 | 1014.7 |
| 20260508040028 | 15 | 18 | 11.3 | 17.7 | 0.00 | 0.00 | 0.00 | 90 | 1014.7 |
| 20260508035045 | 15 | 236 | 19.3 | 29.0 | 0.00 | 0.00 | 0.00 | 89 | 1014.7 |